{"data":{"norad_id":1361,"intl_designator":"1965-034C","name":"LCS 1","alt_names":[],"object_type":"PAYLOAD","status":"ACTIVE","operator":null,"country":"US","launch_date":"1965-05-06","launch_site_code":"AFETR","launch_vehicle":null,"mission":null,"orbit_class":"UNKNOWN","rcs_meters":0.8083,"size_class":null,"mass_kg":null,"dimensions":null,"purposes":["military"],"wikipedia_slug":null,"has_3d_model":false,"image_url":null,"decayed_at":null,"tle_current":{"epoch":"2026-05-24T22:43:30.152928Z","epoch_age_seconds":72919,"freshness":"FRESH","line1":"1 01361U 65034C   26144.94687677  .00000002  00000+0 -81311-3 0  9999","line2":"2 01361  32.1394 232.2118 0012618  38.6276 321.5122  9.89310461207583","mean_motion":9.89310461,"eccentricity":0.0012618,"inclination_deg":32.1394,"raan_deg":232.2118,"arg_perigee_deg":38.6276,"mean_anomaly_deg":321.5122,"bstar":-0.00081311,"rev_number":20758,"period_min":145.55592574493,"perigee_km":2776.3026991117,"apogee_km":2799.43403025,"semimajor_km":9166.0053646808,"source":"CELESTRAK","updated_at":"2026-05-25T13:38:25.284361Z"}}}